Regional Weather Roundup
Issued by NWS

Home | Current Version | Previous Version | Graphics & Text | Print | Product List | Glossary On
Versions: 1 2 3 4 5 6 7 8 9 10 11 12 13 14 15 16 17 18 19 20 21 22 23 24 25 26 27 28 29 30 31 32 33 34 35 36 37 38 39 40 41 42 43 44 45 46 47 48 49 50
000
ASUS43 KDMX 031601
RWRIA

WEATHER ROUNDUP FOR IOWA
NATIONAL WEATHER SERVICE DES MOINES IA
1000 AM CST SAT DEC 03 2016

NOTE: "FAIR" INDICATES FEW OR NO CLOUDS BELOW 12,000 FEET WITH NO
SIGNIFICANT WEATHER AND/OR OBSTRUCTIONS TO VISIBILITY.

* - THESE STATIONS ARE NOT NWS STATIONS...THUS NOT UNDER NWS
QUALITY CONTROL.  THEY ALSO DO NOT REPORT WEATHER SUCH
AS PRECIPITATION OR FOG.

IAZ001>003-012>014-020>022-031>034-043>046-031700-
   NORTHWEST IOWA

CITY           SKY/WX    TMP DP  RH WIND       PRES   REMARKS
CARROLL *      SUNNY     34  32  93 SE9       30.28S WCI  26
CHEROKEE *     MOSUNNY   34  31  88 S9        30.26R WCI  26
DENISON *      CLOUDY    34  30  86 S6        30.25S WCI  29
LE MARS *      PTSUNNY   34  28  80 S12       30.25F WCI  25
ORANGE CITY *  CLOUDY    32  30  93 S5        30.23S WCI  27
SHELDON *      PTSUNNY   32  32 100 S9        30.22R WCI  24
SIOUX CITY     MOSUNNY   31  28  89 SE9       30.25F WCI  23
SPENCER        SUNNY     34  29  82 S8        30.25S WCI  27
STORM LAKE *   SUNNY     34  28  80 S13       30.25S WCI  25
$$

IAZ055>058-069>071-079>083-090>094-031700-
   SOUTHWEST IOWA

CITY           SKY/WX    TMP DP  RH WIND       PRES   REMARKS
ATLANTIC *     MOSUNNY   30  28  93 CALM      30.29R
AUDUBON *      MOSUNNY   34  28  80 SE3       30.29R
CLARINDA *       N/A     28  28 100 CALM      30.33R
COUNCIL BLFS * PTSUNNY   30  28  93 SE9       30.29R WCI  22
CRESTON *      SUNNY     34  32  93 SE9       30.32R WCI  26
HARLAN  *      CLOUDY    32  32 100 SE5       30.31S WCI  27
LAMONI         MOSUNNY   29  27  92 CALM      30.31S
RED OAK *      PTSUNNY   36  32  87 SE7       30.30R WCI  30
SHENANDOAH *   CLOUDY    34  30  86 SE7       30.32R WCI  28
$$

IAZ047>049-059>061-072>074-084-031700-
   CENTRAL IOWA

CITY           SKY/WX    TMP DP  RH WIND       PRES   REMARKS
AMES           CLOUDY    36  32  85 S7        30.30S WCI  30
ANKENY *       CLOUDY    37  32  81 S6        30.33R WCI  33
BOONE *        SUNNY     36  30  80 S6        30.29S WCI  31
CHARITON *       N/A     34  32  93 SE6       30.33R WCI  29
DES MOINES     MOSUNNY   39  30  70 S6        30.32R WCI  35
GRINNELL*      CLOUDY    35  31  84 S5        30.32S WCI  31
KNOXVILLE *    CLOUDY    37  32  81 SE6       30.32R WCI  33
MARSHALLTOWN   CLOUDY    36  30  79 SW6       30.30S WCI  31
NEWTON *       CLOUDY    36  32  87 S8        30.31R WCI  29
PELLA *        CLOUDY    38  32  78 CALM      30.34R
PERRY *          N/A     36  33  87 S6        30.31S WCI  31
$$

IAZ004>006-015-016-023>025-035-036-031700-
   NORTH CENTRAL IOWA

CITY           SKY/WX    TMP DP  RH WIND       PRES   REMARKS
ALGONA *       SUNNY     32  27  80 E6        30.27S WCI  26
CLARION *      SUNNY     36  30  80 NE5       30.27R WCI  32
ESTHERVILLE    SUNNY     30  25  81 E7        30.25F WCI  23
FORT DODGE *   SUNNY     37  25  60 CALM      30.28S
MASON CITY     CLOUDY    31  24  75 NE5       30.29F WCI  26
WEBSTER CITY * SUNNY     37  28  70 CALM      30.27R
IOWA FALLS *     N/A     37  28  72 NW5       30.29S WCI  33
$$

IAZ007>011-017>019-026>030-037>042-050>054-066-031700-
   NORTHEAST IOWA

CITY           SKY/WX    TMP DP  RH WIND       PRES   REMARKS
CEDAR RAPIDS   CLOUDY    34  28  79 S7        30.31S WCI  28
CHARLES CITY * CLOUDY    32  28  86 NE5       30.29F WCI  27
CLINTON *      CLOUDY    34  25  69 NE6       30.35S WCI  29
DECORAH *      CLOUDY    30  27  86 CALM      30.29S
DUBUQUE        CLOUDY    32  24  72 NE3       30.31S
MONTICELLO *   CLOUDY    32  25  74 S5        30.32S WCI  27
OELWEIN *      SUNNY     32  27  80 S7        30.30S WCI  26
WATERLOO       CLOUDY    34  26  72 SE3       30.30S
$$

IAZ064-065-067-068-078-031700-
   EAST CENTRAL IOWA

CITY           SKY/WX    TMP DP  RH WIND       PRES   REMARKS
DAVENPORT      CLOUDY    33  24  69 CALM      30.36R
IOWA CITY      CLOUDY    37  27  67 SE6       30.37R WCI  32
MUSCATINE *    CLOUDY    37  25  60 CALM      30.36F
QUAD CITIES    CLOUDY    36  23  59 CALM      30.37R
$$

IAZ062-063-075>077-085>089-095>099-031700-
   SOUTHEAST IOWA

CITY           SKY/WX    TMP DP  RH WIND       PRES   REMARKS
BURLINGTON     CLOUDY    36  28  73 E7        30.36R WCI  30
FAIRFIELD *    CLOUDY    36  28  75 SE7       30.35R WCI  30
FORT MADISON * CLOUDY    37  28  70 E7        30.37R WCI  32
KEOKUK *       CLOUDY    37  28  70 SE8       30.37R WCI  31
OSKALOOSA *    CLOUDY    36  31  82 SE6       30.35R WCI  31
CENTERVILLE *    N/A     32  32 100 E8        30.35R WCI  25
OTTUMWA        CLOUDY    37  29  72 SE5       30.35R WCI  33
WASHINGTON *   CLOUDY    36  30  80 VRB3      30.36S
$$

ABBREVIATIONS USED IN REMARKS
   TC - TEMPERATURES IN CELSIUS
  WCI - WIND CHILL INDEX
   HX - HEAT INDEX
  VSB - VISIBILITY
$$




USA.gov is the U.S. government's official web portal to all federal, state and local government web resources and services.